Regional Weather Roundup
Issued by NWS Pendleton, OR

Home | Current Version | Previous Version | Text Only | Print | Product List | Glossary On
Versions: 1 2 3 4 5 6 7 8 9 10 11 12 13 14 15 16 17 18 19 20 21 22 23 24 25 26 27 28 29 30 31 32 33 34 35 36 37 38 39 40 41 42 43 44 45 46 47 48 49 50
000
ASUS46 KPDT 050625
RWRPDT
PENDLETON REGIONAL WEATHER ROUNDUP
NATIONAL WEATHER SERVICE PENDLETON OREGON
1100 PM PDT SAT JUL 4 2015

NOTE: FAIR INDICATES FEW OR NO CLOUDS BELOW 12,000 FEET WITH NO
SIGNIFICANT WEATHER AND/OR OBSTRUCTIONS TO VISIBILITY.

# INDICATES UNOFFICIAL STATION AND DATA

WAZ520-050710-
EAST SLOPES OF WASHINGTON CASCADES

CITY            SKY/WX      TMP DP  RH  WIND    PRES   REMARKS
#BUMPING DAM    N/A         65  N/A N/A W7      N/A
#CLE ELUM HS    N/A         74  38  27  W5      29.76R
#CLE ELUM LAKE  N/A         70  38  31  CALM    29.65R
#CLIFFDEL 2NW   N/A         72  39  30  N2      N/A
#GLENWOOD       N/A         65  54  68  CALM    29.67R
#MANASTASH CYN  N/A         70  34  26  CALM    29.83R
#NELSON         N/A         74  42  32  CALM    29.69R
#NELSON 3SW     N/A         69  35  28  CALM    29.86R
#RONALD 2NW     N/A         70  40  34  E2      29.76R
#SNOWDEN        N/A         74  33  22  NW2     N/A
#TEANAWAY 4NE   N/A         69  40  35  N1      N/A
#TROUT LAKE 1NE N/A         76  49  39  NW2     29.67R
$$

WAZ521-050710-
SIMCOE HIGHLANDS

CITY            SKY/WX      TMP DP  RH  WIND    PRES   REMARKS
#BICKLETON HS   N/A         79  27  15  VRB7    N/A
#GOLDENDALE     N/A         81  49  33  W7      N/A
#GOLDENDALE 5WNWN/A         79  53  41  W9      29.63S
#GOODNOE HILLS  N/A         83  53  36  W13     N/A
#LYLE 6NE       N/A         81  54  39  SW6     29.64R
$$

WAZ026-050710-
KITTITAS VALLEY

CITY            SKY/WX      TMP DP  RH  WIND    PRES   REMARKS
ELLENSBURG AP   PTCLDY      79  38  23  NW21    29.76R
6HR MIN TEMP:   78; 6HR MAX TEMP:   98;

YTC-OPS AREA    N/A         75  27  17  W28G37  29.79R
6HR MIN TEMP:   75; 6HR MAX TEMP:   94;

#ELLENSBURG CWU N/A         77  38  24  NW14    29.60R
#ELLENSBURG 3NE N/A         76  41  28  N7      29.77R
#ELLENSBURG 1E  N/A         77  34  21  CALM    N/A
#KITTITAS 3S    N/A         65  47  52  E1      29.65R
#THORP 6N       N/A         74  39  28  N15G24  29.67R
$$

WAZ027-050710-
YAKIMA VALLEY

CITY            SKY/WX      TMP DP  RH  WIND    PRES   REMARKS
SUNNYSIDE AP    PTCLDY      70  51  51  N6      29.67R
YAKIMA AIRPORT  PTCLDY      87  40  19  N12     29.72R
6HR MIN TEMP:   86; 6HR MAX TEMP:   105;

#DONALD 2NE     N/A         86  28  12  N8      28.54R
#GRANDVIEW      N/A         80  39  23  CALM    29.63R
#MABTON         N/A         82  39  22  SW3     29.65R
#MOXEE 2E       N/A         82  12   7  NW10    29.65R
#NACHES 2SW     N/A         80  44  28  W13     29.71S
#OUTLOOK DOT    N/A         N/A N/A N/A W7      N/A
#SELAH 8E       N/A         74  26  17  E3      N/A
#TERRACE HTS    N/A         84  34  17  N8      29.58R
#TOPPENISH      N/A         86  40  20  NW3     29.54R
#WAPATO 4NE     N/A         86  28  12  N8      28.54R
#WEST VALLEY    N/A         83  41  23  CALM    29.60
#W YAKIMA       N/A         82  43  25  N3      29.63R
#WHITE SWAN 5E  N/A         79  46  31  E1      29.62R
#WILEY CITY 3W  N/A         79  33  19  CALM    29.70R
$$

WAZ028-050710-
LOWER COLUMBIA BASIN...WASHINGTON

CITY            SKY/WX      TMP DP  RH  WIND    PRES   REMARKS
PASCO           MOCLDY      85  46  26  NW7     29.62R
6HR MIN TEMP:   83; 6HR MAX TEMP:   104;

#BASIN CITY 5SW N/A         81  41  24  NW9     29.64R
#BENTON CITY    N/A         83  51  33  SW2     29.50R
#CONNELL 5N     N/A         80  45  29  NW1     29.58R
#CONNELL 5NW    N/A         77  50  39  CALM    29.56R
#ELTOPIA 6NW    N/A         82  44  26  W7      28.64R
#KAHLOTUS       N/A         87  48  26  NW13    29.58R
#KENNEWICK 3S   N/A         88  57  35  NW1     29.60R
#PATERSON       N/A         84  57  40  NW3     29.57S
#PROSSER        N/A         87  28  12  SW5     29.60R
#SAGEMOOR 2W    N/A         83  42  24  W6      29.44S
#TOUCHET 2S     N/A         87  54  32  SW13    29.56S
#WEST PASCO     N/A         90  38  16  NW5     29.59R HX 86
$$

WAZ029-050710-
FOOTHILLS OF THE BLUES...WASHINGTON

CITY            SKY/WX      TMP DP  RH  WIND    PRES   REMARKS
WALLA WALLA AP  MOCLDY      84  44  25  E7      29.67F
6HR MIN TEMP:   83; 6HR MAX TEMP:   100;

#DAYTON SCHOOL  N/A         77  43  30  E2      29.72S
#LOWDEN 2SE     N/A         76  54  46  CALM    29.59S
#PLEASANT VIEW 1N/A         82  45  27  SW3     29.61S
#PRESCOTT       N/A         73  51  46  CALM    29.57S
#SUDBURY        N/A         73  N/A N/A CALM    N/A
#WAITSBURG 5S   N/A         79  42  27  CALM    29.67S
#WAITSBURG 8N   N/A         68  18  15  CALM    29.53S
#WHITMAN MISSIONN/A         75  54  48  CALM    29.60R
$$

WAZ030-050710-
BLUE MOUNTAINS...WASHINGTON

CITY            SKY/WX      TMP DP  RH  WIND    PRES   REMARKS
#DIXIE 5SE      N/A         87  45  23  W1      29.74S
$$

ORZ009-041-WAZ024-050710-
COLUMBIA RIVER GORGE

CITY            SKY/WX      TMP DP  RH  WIND    PRES   REMARKS
HOOD RIVER AP   PTCLDY      75  52  45  W5      29.74S
THE DALLES AP   PTCLDY      87  47  25  NW12    29.68R
6HR MIN TEMP:   86; 6HR MAX TEMP:   101;

#ARLINGTON AIRPON/A         83  53  36  W12     N/A
#ARLINGTON HS   N/A         86  53  32  CALM    29.52R
#CELILO DOT     N/A         89  57  34  SW6     N/A
#MOSIER 1S      N/A         83  36  19  NW2     29.70S
#MURDOCK        N/A         88  55  33  NW17G26 29.67R
#RUFUS DOT      N/A         90  59  35  W24     N/A    HX 89

$$

ORZ510-050710-
NORTH CENTRAL OREGON

CITY            SKY/WX      TMP DP  RH  WIND    PRES   REMARKS
#CHENOWITH 1W   N/A         80  46  30  NW30    N/A
#COW CYN RST AREN/A         75  N/A N/A NW1     N/A
#DUFUR 9E       N/A         78  42  28  W7      29.70S
#GRASS VALLEY 1SN/A         78  36  22  W12     29.67S
#KENT DOT       N/A         72  43  35  W8      N/A
#MAUPIN SCHOOL  N/A         83  48  30  CALM    29.75S
#MORO SCHOOL    N/A         81  49  33  W10     29.79S
#SHANIKO 5WSW   N/A         74  42  32  NW3     N/A
#SHANIKO 4NW    N/A         74  40  29  W8      29.91
#TYGH VALLEY 2NEN/A         79  45  30  CALM    29.66S
#WAPANITIA AIRPON/A         78  49  36  W7      29.66S
#WASCO DOT      N/A         82  53  37  W8      N/A
#WASCO AIRPORT  N/A         80  43  27  W7      N/A
#WASCO 5NE      N/A         81  50  34  W9      29.63R
$$

ORZ511-050710-
CENTRAL OREGON

CITY            SKY/WX      TMP DP  RH  WIND    PRES   REMARKS
BEND AIRPORT    N/A         N/A N/A N/A MISG    N/A
MADRAS AIRPORT  MOCLDY      72  46  39  N5      29.86R
PRINEVILLE AP   MOCLDY      75  41  29  W9      29.88S
#BEND 1SW       N/A         69  41  36  S1      N/A
#BEND-AWBREY    N/A         71  42  35  E1      29.69R
#BEND-KIM LN    N/A         70  43  38  CALM    29.89R
#CROOKED RVR RANN/A         76  48  37  CALM    29.67R
#CULVER         N/A         72  49  44  E2      29.82R
#LAKE BILLY CHINN/A         78   9   7  E3      29.89R
#POWELL BUTTE 3EN/A         76  39  26  SW3     N/A
#POWELL BUTTE   N/A         74  41  30  SW3     29.55R
#PRINEVILLE 3N  N/A         64  54  70  E1      29.66R
#WARM SPRINGS   N/A         81  50  34  W7      29.77S

$$


ORZ509-050710-
EAST SLOPES OF OREGON CASCADES

CITY            SKY/WX      TMP DP  RH  WIND    PRES   REMARKS
#CAMP SHERMAN   N/A         70  51  51  CALM    29.66F
#LA PINE 4NW    N/A         66  47  50  CALM    29.76S
#SISTERS AIRPOR N/A         75  53  46  N2      30.17S
#SISTERS ODOT   N/A         76  N/A N/A SW6     N/A
#SISTERS 1NW    N/A         74  43  33  NW7     N/A
#SISTERS 3N     N/A         72  42  34  CALM    29.90S
#SUNRIVER       N/A         67  45  45  CALM    29.60S
#TUMALO 3W      N/A         73  41  31  SW3     29.58R
#WANOGA BUTTE D N/A         69  23  17  W8      N/A

$$

ORZ044-050710-
LOWER COLUMBIA BASIN...OREGON

CITY            SKY/WX      TMP DP  RH  WIND    PRES   REMARKS
HERMISTON       MOCLDY      85  50  30  S7      29.65R
6HR MIN TEMP:   84; 6HR MAX TEMP:   103;

#BOARDMAN SCHOOLN/A         85  55  36  SW8     29.63R
#BOARDMAN 8SW   N/A         84  55  37  SW12    29.61R
#ECHO 8SW       N/A         87  49  27  SW15    29.66S
#IONE SCHOOL    N/A         86  44  23  SW5     29.69R
#IRRIGON 4NW    N/A         85  58  40  S9      N/A
#UMATILLA SCHOOLN/A         84  66  55  S2      29.71R
#UMATILLA       N/A         85  54  35  CALM    29.55R
$$

ORZ507-050710-
NORTHERN FOOTHILLS OF THE BLUES

CITY            SKY/WX      TMP DP  RH  WIND    PRES   REMARKS
PENDLETON AIRPT CLOUDY      84  45  26  W10     29.71S
6HR MIN TEMP:   78; 6HR MAX TEMP:   99;

#ADAMS 3WNW     N/A         74  45  35  CALM    29.62R
#ATHENA         N/A         73  47  40  CALM    29.65R
#CAYUSE         N/A         79  50  36  E3      29.61R
#HELIX SCHOOL   N/A         76  46  34  CALM    29.62R
#HELIX 3N       N/A         80  46  30  SW9     29.72S
#HOLDMAN 6E     N/A         81  47  30  N2      29.44R
#M-F GROVE ELEM N/A         81  44  27  CALM    29.68S
#M-FREEWATER 5SEN/A         81  51  35  E6      29.70S
#PENDLETON DNTN N/A         78  47  34  CALM    29.69R
#PDT AQUATIC CTRN/A         80  43  27  CALM    29.74S
#PDT SUNRIDGE   N/A         76  45  33  CALM    29.71R
#PENDLETON 7NW  N/A         83  54  37  SW10    27.36S
#PILOT ROCK     N/A         80  44  28  S7      29.77S
#TUTUILLA       N/A         73  49  43  CALM    29.66R
#UMAPINE 2E     N/A         76  53  45  CALM    29.62R
#WESTON SCHOOL  N/A         80  43  27  NW6     29.63R

$$

ORZ508-050710-
SOUTHERN FOOTHILLS OF THE BLUES

CITY            SKY/WX      TMP DP  RH  WIND    PRES   REMARKS
#AJAX           N/A         80  39  23  SW8     29.75S
#CONDON SCHOOL  N/A         77  36  23  W3      29.81S
#CONDON 5W      N/A         74  33  22  W9      29.84S
#FOSSIL SCHOOL  N/A         73  39  29  CALM    29.80S
#HEPPNER EOC    N/A         78  41  27  CALM    29.58R
#LEXINGTON 2SE  N/A         79  43  28  SE3     29.72R
#RUGGS 5NE      N/A         74  34  23  SW2     29.98F
#RUGGS 2SW      N/A         79  37  22  W6      29.65S

$$

ORZ502-503-050710-
BLUE MOUNTAINS

CITY            SKY/WX      TMP DP  RH  WIND    PRES   REMARKS
MEACHAM         MOCLDY      62  50  65  CALM    29.89F
6HR MIN TEMP:   62; 6HR MAX TEMP:   88;

#BATTLE MTN DOT N/A         74  53  48  N1      N/A
#HEPPNER 15SE   N/A         65  42  43  CALM    29.83F
#LONG CREEK HS  N/A         67  42  40  CALM    29.85R
#N POWDER DOT   N/A         66  55  68  W1      N/A
#PIKES PEAK     N/A         83  42  24  S8      27.99S
#TOLLGATE       N/A         62  42  48  CALM    29.91S
#TROY SCHOOL    N/A         77  51  40  W3      29.48R
#UKIAH          N/A         66  50  56  CALM    29.71S
#WESTON 4E      N/A         77  42  29  SW1     29.57S
$$

ORZ505-050710-
JOHN DAY BASIN

CITY            SKY/WX      TMP DP  RH  WIND    PRES   REMARKS
JOHN DAY        MOCLDY      75  38  26  E8      29.89S
#JOHN DAY KJDY  N/A         71  55  57  NE1     29.88R
#DAYVILLE SCHOOLN/A         81  35  19  CALM    29.80R
#MITCHELL       N/A         71  49  46  CALM    30.03R
#MONUMENT HS    N/A         73  42  33  CALM    29.79R
#MT. VERNON 5SE N/A         73  35  25  CALM    29.87R
#WINLOCK        N/A         77  33  20  CALM    29.93F
$$

ORZ506-050710-
OCHOCO AND JOHN DAY HIGHLANDS

CITY            SKY/WX      TMP DP  RH  WIND    PRES   REMARKS
#BUCK CREEK DOT N/A         75  75  100 S2      N/A
#HORSE RIDGE DO N/A         65  34  31  CALM    N/A
#KEYES SMT DOT  N/A         74  44  34  NW3     N/A
#PAULINA SCHOOL N/A         74  39  28  W2      29.90R
#PINE MTN OBS   N/A         66  28  24  NW7     N/A
#PRAIRIE CITY   N/A         65  48  54  CALM    29.78R
#SENECA         N/A         63  N/A N/A CALM    N/A
#SENECA 9NW     N/A         62  39  43  CALM    29.68S
$$

ORZ049-050710-
GRANDE RONDE VALLEY

CITY            SKY/WX      TMP DP  RH  WIND    PRES   REMARKS
LA GRANDE       MOCLDY      73  43  34  N5      29.81S
#COVE           N/A         73  52  48  NE2     29.84F
#ELGIN 3N       N/A         67  46  47  CALM    29.80F
#ELGIN 1E       N/A         70  49  47  CALM    N/A
#IMBLER SCHOOL  N/A         66  52  61  CALM    29.78S
#ISLAND CITY 4N N/A         73  61  66  CALM    29.75S
#LADD CYN DOT   N/A         75  49  40  SE16    N/A
#UNION 1S       N/A         75  50  41  CALM    29.55S
$$

ORZ050-050710-
WALLOWA COUNTY

CITY            SKY/WX      TMP DP  RH  WIND    PRES   REMARKS
JOSEPH AIRPORT  N/A         66  43  43  S5      29.92S
#IMNAHA SCHOOL  N/A         80  41  25  SW1     29.75S
#IMNAHA 10S     N/A         76  51  42  SW3     30.01S
#JOSEPH 3N      N/A         60  48  64  CALM    29.93F
#JOSEPH 3W      N/A         68  42  39  SW3     29.80F
#LOSTINE        N/A         66  49  54  CALM    29.47S
#MT HOWARD 8000 N/A         64  34  33  W2      30.23F
#PROMISE 1S     N/A         76  48  37  CALM    29.71F
#WALLOWA SCHOOL N/A         65  52  63  CALM    29.81S



$$



USA.gov is the U.S. government's official web portal to all federal, state and local government web resources and services.